Weather History for GMMX - April, 2013

Change the Weather History Date:

Friday, April 26, 2013

  Actual Average Record
Temperature  
Mean Temperature 68 °F -  
Max Temperature 82 °F 80 °F 98 °F (2008)
Min Temperature 54 °F 56 °F 50 °F (2012)
Cooling Degree Days 3    
Growing Degree Days 18 (Base 50)    
Moisture  
Dew Point 45 °F    
Average Humidity 45    
Maximum Humidity 77    
Minimum Humidity 11    
Precipitation  
Precipitation 0.00 in 0.03 in - ()
Sea Level Pressure  
Sea Level Pressure 30.02 in    
Wind  
Wind Speed 4 mph ()    
Max Wind Speed 14 mph    
Max Gust Speed 20 mph    
Visibility 6.0 miles    
Events      
Averages and records for this station are not official NWS values.
T = Trace of Precipitation, MM = Missing Value Source: Averaged Metar Reports

Daily Weather History Graph

Daily Weather History Graph

Search for Another Location

Airport or City:

Trip Planner

Search our weather history database for the weather conditions in past years. The results will help you decide how hot, cold, wet, or windy it might be!

Date:

Astronomy

Apr. 26, 2013 Rise Set
Actual Time 5:51 AM WET 7:08 PM WET
Civil Twilight 5:26 AM WET 7:34 PM WET
Nautical Twilight 4:55 AM WET 8:04 PM WET
Astronomical Twilight 4:24 AM WET 8:36 PM WET
Moon 8:11 PM WET (4/26) 6:11 AM WET (4/26)
Length of Visible Light 14h 08m
Length of Day
13h 16m
Full, 99% of the Moon is Illuminated
Apr 26
Full
May 2
Last Quarter
May 10
New
May 18
First Quarter
May 25
Full

Hourly Weather History & Observations

Time (WET) Temp. Dew Point Humidity Pressure Visibility Wind Dir Wind Speed Gust Speed Precip Events Conditions
12:00 AM 62 °F 45 °F 43% 30.05 in 6 mi ENE 3.5 mph - -   Scattered Clouds
12:00 AM 62.6 °F 44.6 °F 52% 30.06 in 6.2 mi ENE 3.5 mph - N/A   Partly Cloudy
12:30 AM 60.8 °F 44.6 °F 55% 30.06 in 6.2 mi ENE 3.5 mph - N/A   Partly Cloudy
1:00 AM 60.8 °F 44.6 °F 55% 30.06 in 6.2 mi ENE 2.3 mph - N/A   Partly Cloudy
1:30 AM 60.8 °F 44.6 °F 55% 30.04 in 6.2 mi NE 1.2 mph - N/A   Partly Cloudy
2:00 AM 60.8 °F 46.4 °F 59% 30.04 in 6.2 mi NNE 4.6 mph - N/A   Partly Cloudy
2:30 AM 60.8 °F 46.4 °F 59% 30.04 in 6.2 mi Calm Calm - N/A   Partly Cloudy
3:00 AM 59 °F 47 °F 55% 30.01 in 6 mi NNE 4.6 mph - -   Scattered Clouds
3:00 AM 59.0 °F 46.4 °F 63% 30.01 in 6.2 mi NNE 3.5 mph - N/A   Partly Cloudy
3:30 AM 59.0 °F 48.2 °F 67% 30.01 in 6.2 mi NNE 3.5 mph - N/A   Partly Cloudy
4:00 AM 57.2 °F 48.2 °F 72% 30.04 in 6.2 mi NNE 1.2 mph - N/A   Partly Cloudy
4:30 AM 57.2 °F 46.4 °F 67% 30.04 in 6.2 mi Calm Calm - N/A   Unknown
5:00 AM 55.4 °F 46.4 °F 72% 30.04 in - Calm Calm - N/A   Clear
5:30 AM 55.4 °F 46.4 °F 72% 30.04 in - Calm Calm - N/A   Clear
6:00 AM 55 °F 46 °F 64% 30.04 in 6 mi Calm Calm - -  
6:00 AM 55.4 °F 46.4 °F 72% 30.04 in - Calm Calm - N/A   Clear
6:30 AM 55.4 °F 48.2 °F 77% 30.04 in - Calm Calm - N/A   Clear
7:00 AM 59.0 °F 48.2 °F 67% 30.04 in - East 5.8 mph - N/A   Clear
7:30 AM 60.8 °F 48.2 °F 63% 30.06 in - East 8.1 mph - N/A   Clear
8:00 AM 62.6 °F 48.2 °F 59% 30.06 in - East 8.1 mph - N/A   Clear
8:30 AM 64.4 °F 48.2 °F 56% 30.06 in - ENE 5.8 mph - N/A   Clear
9:00 AM 66 °F 49 °F 43% 30.03 in 6 mi ENE 2.3 mph - -  
9:00 AM 66.2 °F 48.2 °F 52% 30.06 in - ENE 4.6 mph - N/A   Clear
9:30 AM 68.0 °F 48.2 °F 49% 30.06 in - ENE 3.5 mph - N/A   Clear
10:00 AM 68.0 °F 48.2 °F 49% 30.06 in 5.0 mi NNW 4.6 mph - N/A   Unknown
10:30 AM 69.8 °F 48.2 °F 46% 30.06 in 5.0 mi NE 4.6 mph - N/A   Unknown
11:00 AM 73.4 °F 46.4 °F 38% 30.06 in - NE 4.6 mph - N/A   Clear
11:30 AM 73.4 °F 44.6 °F 36% 30.06 in - NE 4.6 mph - N/A   Clear
11:47 AM 74 °F 40 °F 19% 30.00 in 6 mi ENE 3.5 mph - -  
12:00 PM 75.2 °F 39.2 °F 27% 30.06 in - ENE 3.5 mph - N/A   Clear
12:30 PM 75.2 °F 41.0 °F 29% 30.04 in - East 5.8 mph - N/A   Clear
1:00 PM 78.8 °F 37.4 °F 23% 30.04 in - North 3.5 mph - N/A   Clear
1:30 PM 78.8 °F 35.6 °F 21% 30.01 in - Variable 3.5 mph - N/A   Clear
2:00 PM 80.6 °F 33.8 °F 18% 30.01 in - North 6.9 mph - N/A   Clear
2:30 PM 80.6 °F 35.6 °F 20% 30.01 in - ESE 3.5 mph - N/A   Clear
3:00 PM 81 °F 35 °F 11% 29.91 in 6 mi NNE 5.8 mph - -  
3:00 PM 82.4 °F 35.6 °F 19% 29.98 in - ENE 6.9 mph 19.6 mph N/A   Clear
3:30 PM 82.4 °F 32.0 °F 16% 29.98 in - Variable 4.6 mph - N/A   Clear
4:00 PM 82.4 °F 33.8 °F 17% 29.98 in - North 4.6 mph - N/A   Clear
4:30 PM 82.4 °F 33.8 °F 17% 29.98 in - NW 3.5 mph - N/A   Clear
5:00 PM 82.4 °F 35.6 °F 19% 29.98 in 6.2 mi Variable 1.2 mph - N/A   Partly Cloudy
5:30 PM 82.4 °F 35.6 °F 19% 29.98 in 6.2 mi NNW 3.5 mph - N/A   Partly Cloudy
6:00 PM 82 °F 37 °F 11% 29.89 in 6 mi North 6.9 mph - -   Scattered Clouds
6:00 PM 82.4 °F 37.4 °F 20% 29.98 in 6.2 mi NNE 5.8 mph - N/A   Partly Cloudy
6:30 PM 80.6 °F 37.4 °F 21% 29.98 in 6.2 mi NNW 5.8 mph - N/A   Partly Cloudy
7:00 PM 78.8 °F 37.4 °F 23% 29.98 in 6.2 mi Variable 2.3 mph - N/A   Partly Cloudy
7:30 PM 75.2 °F 53.6 °F 47% 29.98 in 6.2 mi NNW 13.8 mph - N/A   Partly Cloudy
8:00 PM 71.6 °F 53.6 °F 53% 29.98 in - North 12.7 mph - N/A   Clear
8:30 PM 69.8 °F 53.6 °F 56% 30.01 in - NNE 11.5 mph - N/A   Clear
9:00 PM 69 °F 52 °F 45% 29.96 in 6 mi NNE 5.8 mph - -  
9:00 PM 69.8 °F 51.8 °F 53% 30.01 in - NNE 6.9 mph - N/A   Clear
9:30 PM 68.0 °F 53.6 °F 60% 30.01 in - NNE 6.9 mph - N/A   Clear
10:00 PM 68.0 °F 53.6 °F 60% 30.01 in - North 3.5 mph - N/A   Clear
10:30 PM 66.2 °F 53.6 °F 64% 30.01 in - NW 3.5 mph - N/A   Clear
11:00 PM 64.4 °F 51.8 °F 64% 30.04 in - West 8.1 mph - N/A   Clear
11:30 PM 62.6 °F 51.8 °F 68% 30.01 in - West 6.9 mph - N/A   Clear